TimeCET,TemperatureF,Dew PointF,Humidity,Sea Level PressureIn,VisibilityMPH,Wind Direction,Wind SpeedMPH,Gust SpeedMPH,PrecipitationIn,Events,Conditions,WindDirDegrees,DateUTC
1:55 AM,33.8,-22.0,8,30.39,-9999.0,North,4.6,-,N/A,,Clear,360,2012-11-14 00:55:00
2:55 AM,33.8,30.2,87,30.39,-9999.0,North,3.5,-,N/A,,Clear,360,2012-11-14 01:55:00
3:55 AM,33.8,30.2,87,30.42,-9999.0,North,4.6,-,N/A,,Clear,360,2012-11-14 02:55:00
4:55 AM,32.0,28.4,87,30.39,-9999.0,NNE,4.6,-,N/A,,Clear,20,2012-11-14 03:55:00
8:55 AM,32.0,28.4,87,30.36,-9999.0,North,4.6,-,N/A,,Clear,360,2012-11-14 07:55:00
9:55 AM,41.0,26.6,57,30.33,-9999.0,North,4.6,-,N/A,,Clear,10,2012-11-14 08:55:00
10:55 AM,42.8,21.2,42,30.33,-9999.0,North,5.8,-,N/A,,Clear,10,2012-11-14 09:55:00
11:55 AM,46.4,17.6,32,30.33,-9999.0,NNW,3.5,-,N/A,,Clear,330,2012-11-14 10:55:00
12:55 PM,48.2,23.0,37,30.27,-9999.0,SSW,4.6,-,N/A,,Clear,200,2012-11-14 11:55:00
1:55 PM,48.2,23.0,37,30.27,-9999.0,SW,4.6,-,N/A,,Clear,220,2012-11-14 12:55:00
2:55 PM,46.4,23.0,40,30.27,-9999.0,WSW,4.6,-,N/A,,Clear,240,2012-11-14 13:55:00
3:55 PM,42.8,24.8,49,30.24,-9999.0,South,3.5,-,N/A,,Clear,190,2012-11-14 14:55:00
4:55 PM,37.4,28.4,70,30.27,-9999.0,NE,3.5,-,N/A,,Clear,40,2012-11-14 15:55:00
5:55 PM,35.6,30.2,81,30.27,-9999.0,Calm,Calm,-,N/A,,Clear,0,2012-11-14 16:55:00
6:55 PM,35.6,28.4,75,30.27,-9999.0,Calm,Calm,-,N/A,,Clear,0,2012-11-14 17:55:00
7:55 PM,33.8,30.2,87,30.27,-9999.0,Calm,Calm,-,N/A,,Clear,0,2012-11-14 18:55:00
8:55 PM,33.8,30.2,87,30.27,-9999.0,North,3.5,-,N/A,,Clear,10,2012-11-14 19:55:00
9:55 PM,33.8,28.4,81,30.27,-9999.0,Calm,Calm,-,N/A,,Clear,0,2012-11-14 20:55:00
10:55 PM,33.8,28.4,81,30.27,-9999.0,NNE,3.5,-,N/A,,Clear,20,2012-11-14 21:55:00
11:55 PM,32.0,26.6,80,30.27,-9999.0,North,3.5,-,N/A,,Clear,10,2012-11-14 22:55:00